Date,TemperatureHighF,TemperatureAvgF,TemperatureLowF,DewpointHighF,DewpointAvgF,DewpointLowF,HumidityHigh,HumidityAvg,HumidityLow,PressureMaxIn,PressureMinIn,WindSpeedMaxMPH,WindSpeedAvgMPH,GustSpeedMaxMPH,PrecipitationSumIn
2013-1-1,19.0,-0.9,-10.5,-1.1,-14.3,-99.9,73,60,38,30.86,30.37,1,0,10,0.00
2013-1-2,22.0,-2.1,-12.1,-1.3,-18.7,-99.9,71,56,22,31.02,30.44,2,0,13,0.00
2013-1-3,21.3,-4.1,-16.4,-6.8,-37.5,-99.9,70,46,20,31.22,30.58,2,0,7,0.00
2013-1-4,38.3,7.4,-2.2,6.6,-20.1,-99.9,76,52,22,30.88,30.22,3,0,8,0.07
2013-1-5,39.9,8.9,-5.0,6.3,-25.3,-99.9,72,43,16,30.92,29.59,2,0,12,0.00
2013-1-6,44.8,9.6,-4.3,10.4,-59.3,-99.9,66,23,10,30.96,29.34,1,0,8,0.00
2013-1-7,44.5,9.4,3.5,10.8,-61.8,-99.9,71,21,11,30.56,29.23,4,0,6,0.00
2013-1-8,40.8,11.8,6.4,11.5,-32.9,-99.9,65,37,26,30.64,29.30,5,0,11,0.00
2013-1-9,48.6,11.2,10.1,13.5,-63.7,-99.9,62,13,15,30.85,29.45,1,0,8,0.00
2013-1-10,38.8,10.5,24.3,16.6,-64.9,-99.9,71,14,14,30.09,28.77,3,0,10,0.00
2013-1-11,7.4,0.8,-5.3,-4.5,-71.4,-99.9,70,23,46,30.35,28.62,4,1,12,0.00
2013-1-12,12.0,-7.4,-20.0,-1.0,-48.6,-99.9,67,42,31,30.84,30.13,2,0,6,0.08
2013-1-13,8.0,-6.5,-20.8,-12.5,-36.6,-99.9,68,47,32,30.88,30.12,2,0,11,0.00
2013-1-14,12.1,-3.4,-16.8,-9.6,-50.1,-99.9,69,38,32,30.92,29.08,2,0,11,0.00
2013-1-15,23.5,-5.0,-23.2,-1.0,-61.1,-99.9,66,28,30,31.16,29.40,4,0,10,0.01
2013-1-16,43.7,10.4,5.2,15.7,-66.0,-99.9,74,15,29,30.72,29.44,2,0,11,0.00
2013-1-17,41.6,10.7,2.0,13.9,-47.1,-99.9,79,32,25,31.11,29.62,2,0,7,0.00
2013-1-18,41.2,7.8,5.1,6.5,-63.8,-99.9,74,19,14,30.69,29.51,5,0,8,0.00
2013-1-19,23.4,4.2,8.9,6.1,-74.1,-99.9,51,12,41,30.81,29.54,2,0,5,0.00
2013-1-20,44.5,8.0,8.2,4.8,-60.9,-99.9,66,18,8,30.73,29.47,2,0,7,0.00
2013-1-21,42.0,13.7,10.4,5.3,-51.1,-99.9,51,16,20,30.59,29.51,3,0,12,0.00
2013-1-22,46.5,16.0,8.8,10.2,-47.8,-99.9,51,16,8,30.77,29.58,3,0,11,0.00
2013-1-23,55.7,19.3,10.2,17.5,-49.1,-99.9,53,15,6,30.70,29.82,1,0,10,0.00
2013-1-24,45.9,21.1,29.9,22.3,-28.8,-99.9,68,32,27,30.33,29.56,5,1,14,0.00
2013-1-25,37.0,28.5,27.5,25.6,7.1,-99.9,73,63,59,30.18,30.05,3,1,19,0.00
2013-1-26,39.0,22.6,26.0,28.9,-11.3,-99.9,91,57,53,30.11,29.61,2,0,8,0.01
2013-1-27,36.3,27.5,20.3,26.9,12.4,-99.9,87,69,54,29.87,29.59,2,0,10,0.01
2013-1-28,27.5,14.5,22.6,22.1,-33.0,-99.9,87,45,76,29.76,29.50,1,0,5,0.00
2013-1-29,19.0,6.7,-8.6,8.7,-5.0,-16.0,79,60,30,30.31,29.72,2,0,12,0.08
2013-1-30,17.9,9.2,-5.5,8.0,-0.0,-13.1,76,66,48,30.48,30.21,4,2,27,0.00
2013-1-31,30.4,18.2,8.2,12.5,5.2,-99.9,79,61,44,30.62,30.25,5,1,24,0.01
2013-2-1,32.4,21.1,12.1,10.6,6.7,-99.9,77,57,36,30.49,30.22,4,2,18,0.04
2013-2-2,42.9,20.0,1.5,10.2,-0.1,-6.6,73,48,13,30.83,30.35,2,0,13,0.13
2013-2-3,40.6,21.8,5.1,11.3,-6.2,-99.9,64,38,12,30.52,29.70,3,1,16,0.03
2013-2-4,41.7,17.8,1.6,5.6,-12.1,-99.9,67,39,19,30.48,29.80,2,1,13,0.00
2013-2-5,48.1,20.7,4.1,17.5,-6.2,-99.9,76,47,17,30.58,29.57,2,0,10,0.00
2013-2-6,41.8,20.0,8.2,15.4,-8.5,-99.9,79,48,26,30.33,29.61,2,0,12,0.00
2013-2-7,43.5,16.3,0.0,13.4,-10.9,-99.9,78,44,8,30.80,29.94,1,0,7,0.00
2013-2-8,37.9,18.9,-0.5,17.1,-7.5,-99.9,76,46,28,30.49,29.57,3,1,16,0.00
2013-2-9,25.1,18.2,8.5,12.9,5.8,-99.9,78,61,43,29.84,29.53,3,0,18,0.00
2013-2-10,25.1,10.4,1.7,6.6,-5.4,-99.9,77,59,30,30.27,29.84,3,0,12,0.06
2013-2-11,16.5,5.3,-10.1,5.5,-3.0,-17.6,80,68,47,30.52,30.14,3,0,7,0.00
2013-2-12,30.3,5.1,-16.9,0.9,-10.8,-25.5,73,52,21,30.88,30.31,3,1,12,0.06
2013-2-13,35.7,12.7,-1.6,6.7,-7.9,-99.9,76,52,25,30.62,30.14,4,1,19,0.00
2013-2-14,28.6,16.2,5.6,8.1,-0.3,-99.9,69,52,23,30.49,30.15,3,1,16,0.00
2013-2-15,25.6,13.6,1.3,4.1,-1.4,-6.9,70,53,27,30.74,30.27,4,1,20,0.00
2013-2-16,40.5,19.4,6.2,14.2,-7.0,-99.9,68,42,23,30.83,30.14,3,1,18,0.00
2013-2-17,41.1,21.2,8.7,14.9,-11.2,-99.9,81,34,10,30.42,29.64,3,1,13,0.00
2013-2-18,26.3,12.1,-2.4,12.1,-3.4,-12.6,79,53,25,30.66,29.66,3,1,14,0.10
2013-2-19,39.2,13.5,-5.3,4.1,-15.3,-99.9,66,39,9,30.65,29.82,2,0,11,0.00
2013-2-20,29.7,15.3,3.0,17.0,2.1,-99.9,82,67,37,30.18,29.54,5,1,14,0.00
2013-2-21,29.2,17.2,4.0,13.2,6.7,-3.6,79,64,40,30.02,29.58,2,0,13,0.07
2013-2-22,23.1,8.0,-4.0,10.1,-2.1,-11.0,75,64,38,30.45,30.01,2,0,11,0.01
2013-2-23,26.2,14.9,0.3,16.5,5.0,-9.0,80,65,39,30.38,29.70,3,1,14,0.02
2013-2-24,16.6,7.8,-6.2,9.4,0.7,-13.1,82,72,47,30.47,29.72,5,1,16,0.00
2013-2-25,34.2,9.8,-12.2,8.9,-3.7,-20.2,72,57,27,30.71,29.93,3,1,12,0.17
2013-2-26,21.2,9.5,-6.3,7.2,-0.8,-13.5,80,63,45,30.56,29.92,3,0,13,0.00
2013-2-27,27.2,6.1,-13.2,0.1,-10.1,-21.3,70,51,21,30.85,30.44,2,0,14,0.02
2013-2-28,30.2,10.7,-13.3,6.5,-5.4,-21.7,70,52,18,30.89,30.29,3,1,20,0.00
2013-3-1,38.2,24.1,13.5,13.0,9.0,4.3,72,54,31,30.55,30.29,3,1,22,0.01
2013-3-2,46.9,26.1,6.2,19.2,10.0,0.3,80,55,26,30.77,30.10,2,1,16,0.00
2013-3-3,42.9,31.9,21.7,22.6,14.5,5.8,84,52,26,30.08,29.69,4,2,17,0.00
2013-3-4,35.8,21.8,-0.9,22.8,14.1,-8.6,87,72,47,30.36,29.66,3,1,13,0.20
2013-3-5,44.9,21.4,-0.7,6.5,-1.3,-8.7,72,42,15,30.73,30.24,2,1,20,0.06
2013-3-6,47.4,26.4,5.3,12.9,5.3,-3.7,71,45,19,30.52,29.85,3,1,14,0.00
2013-3-7,48.4,27.1,9.2,16.3,4.5,-4.1,74,46,11,30.25,29.85,3,1,19,0.00
2013-3-8,45.1,26.1,10.6,24.3,14.5,4.0,88,66,24,30.14,29.45,2,0,12,0.00
2013-3-9,29.1,20.1,7.0,20.3,14.7,1.6,84,79,62,30.22,29.53,3,0,10,0.00
2013-3-10,37.5,15.8,-4.2,12.7,2.5,-11.2,76,58,30,30.61,30.12,3,1,17,0.43
2013-3-11,42.0,27.3,9.6,14.7,6.6,-99.9,72,45,26,30.32,29.99,3,2,20,0.01
2013-3-12,42.4,30.1,20.1,18.6,13.7,10.0,68,52,30,30.35,29.99,3,1,18,0.00
2013-3-13,49.1,31.3,17.1,20.1,11.5,8.1,73,48,20,30.53,30.27,2,0,14,0.00
2013-3-14,52.6,34.4,18.9,20.2,11.7,4.6,69,44,15,30.62,30.17,3,1,13,0.00
2013-3-15,55.0,37.8,23.6,19.0,14.0,10.9,66,42,19,30.32,29.81,4,2,18,0.00
2013-3-16,39.0,30.1,21.8,31.0,20.9,14.2,84,69,54,30.00,29.80,2,0,13,0.05
2013-3-17,37.4,25.0,17.3,23.2,14.4,-99.9,84,68,38,29.92,29.65,3,1,17,0.16
2013-3-18,28.3,22.0,15.9,14.5,5.4,-1.2,72,50,34,30.14,29.83,3,2,17,0.03
2013-3-19,38.7,26.3,10.3,6.4,-2.4,-16.9,52,31,11,30.39,30.03,3,1,17,0.00
2013-3-20,42.3,25.5,5.4,21.4,6.7,-12.7,71,47,21,30.52,29.75,4,1,18,0.00
2013-3-21,37.5,25.7,12.6,24.5,16.9,-99.9,87,72,55,29.98,29.57,4,1,13,0.12
2013-3-22,34.2,20.5,2.7,14.5,4.5,-4.6,73,52,26,30.14,29.69,4,2,21,0.08
2013-3-23,16.7,8.6,-10.4,7.9,0.5,-18.6,76,69,51,30.62,29.74,5,1,17,0.00
2013-3-24,16.6,3.4,-11.2,1.7,-8.0,-18.8,69,59,40,30.62,30.39,2,1,13,0.00
2013-3-25,29.8,8.7,-14.4,4.4,-10.7,-23.1,68,45,16,30.78,30.40,3,1,20,0.19
2013-3-26,43.0,27.3,-0.9,16.0,7.8,-8.8,73,46,22,30.42,29.88,3,1,19,0.04
2013-3-27,45.6,32.8,18.9,18.1,11.6,6.7,66,45,22,30.16,29.86,2,1,13,0.00
2013-3-28,48.6,30.4,13.8,22.5,11.7,6.1,72,50,22,30.39,30.08,3,0,14,0.00
2013-3-29,47.2,32.4,20.5,22.6,16.1,11.3,74,54,26,30.35,30.10,2,1,17,0.00
2013-3-30,48.3,34.3,24.5,21.8,16.9,11.8,75,52,23,30.19,30.01,3,1,24,0.00
2013-3-31,50.3,33.0,16.5,20.3,11.5,5.6,75,47,17,30.32,29.97,2,0,16,0.00
2013-4-1,50.1,34.5,20.3,25.6,17.2,10.3,84,54,20,30.18,29.79,3,0,17,0.01
2013-4-2,42.9,29.1,23.0,25.3,18.4,-99.9,88,71,30,30.02,29.79,5,1,14,0.00
2013-4-3,46.4,31.8,19.9,22.3,15.0,-99.9,88,56,25,30.26,29.87,3,0,13,0.10
2013-4-4,52.1,35.2,19.0,25.2,15.0,9.8,73,48,20,30.41,29.99,2,0,12,0.00
2013-4-5,51.9,37.6,26.1,30.7,19.4,12.5,86,52,22,30.08,29.72,3,1,16,0.00
2013-4-6,48.8,36.8,26.9,25.4,16.9,7.2,79,48,22,29.99,29.76,3,1,13,0.06
2013-4-7,44.8,34.6,27.1,28.9,19.6,15.1,87,56,31,29.83,29.68,3,1,18,0.02
2013-4-8,48.3,33.6,24.5,29.0,21.2,10.8,90,66,22,29.73,29.33,3,0,18,0.05
2013-4-9,29.7,13.4,13.1,26.4,-26.9,-99.9,90,52,70,30.00,29.31,7,2,18,0.00
2013-4-10,34.7,14.1,4.1,16.8,-23.8,-99.9,78,43,41,30.36,29.08,3,1,12,0.22
2013-4-11,37.6,25.1,13.0,24.6,6.9,-99.9,76,59,40,30.08,29.71,3,1,18,0.04
2013-4-12,42.2,24.0,19.6,22.8,-8.6,-99.9,74,46,32,30.06,29.64,5,1,20,0.01
2013-4-13,46.9,33.5,15.4,28.3,14.5,5.6,89,51,22,30.02,29.31,5,2,25,0.00
2013-4-14,34.1,28.8,24.8,28.6,17.7,11.8,90,65,41,29.74,29.26,4,1,19,0.34
2013-4-15,39.9,32.3,24.9,30.8,23.0,-99.9,87,74,57,29.71,29.44,3,1,12,0.25
2013-4-16,47.7,30.4,17.3,19.3,4.1,-99.9,87,49,22,29.87,29.45,5,2,25,0.00
2013-4-17,37.3,24.8,8.8,22.3,13.3,-99.9,86,66,31,29.98,29.47,4,1,21,0.07
2013-4-18,25.4,12.4,0.1,2.9,-6.7,-99.9,78,52,28,30.56,30.00,3,1,20,0.05
2013-4-19,40.3,23.2,2.3,11.3,0.3,-99.9,73,47,27,30.58,30.00,3,1,19,0.00
2013-4-20,39.4,29.2,21.6,29.1,14.4,-99.9,82,63,36,30.03,29.83,3,1,14,0.01
2013-4-21,45.5,33.5,23.3,19.5,8.9,-99.9,80,43,22,30.12,29.82,3,1,13,0.03
2013-4-22,44.9,33.3,22.4,28.1,17.3,-99.9,86,61,27,29.96,29.75,4,1,20,0.14
2013-4-23,31.9,18.8,6.8,16.7,5.4,-99.9,82,65,31,30.47,29.86,4,1,11,0.16
2013-4-24,39.8,23.5,2.5,11.9,2.3,-6.2,68,43,20,30.43,30.23,3,1,18,0.02
2013-4-25,51.8,33.4,15.5,26.6,13.8,4.1,71,49,17,30.28,29.83,3,0,16,0.00
2013-4-26,52.6,36.4,21.3,19.3,11.3,2.7,73,42,13,30.24,29.92,3,1,13,0.00
2013-4-27,52.8,36.3,21.3,22.8,11.9,-99.9,74,44,15,30.30,30.08,3,1,14,0.00
2013-4-28,58.8,40.3,23.0,25.0,15.2,8.0,69,42,15,30.19,29.82,3,1,16,0.00
2013-4-29,59.3,43.9,28.7,25.6,16.5,-99.9,68,39,17,29.88,29.46,3,1,17,0.00
2013-4-30,58.8,46.4,34.7,24.4,12.3,-99.9,58,31,17,29.62,29.37,5,2,17,0.00
2013-5-1,46.1,30.6,15.3,27.9,15.7,-99.9,82,66,37,30.42,29.42,7,2,18,0.04
2013-5-2,38.1,23.8,6.6,15.3,6.7,-5.1,83,53,16,30.83,30.37,5,1,16,0.03
2013-5-3,53.5,34.5,14.6,23.5,5.4,-99.9,69,38,12,30.53,29.92,3,1,14,0.00
2013-5-4,47.2,34.0,20.2,28.4,17.5,11.5,88,55,26,30.12,29.92,5,1,14,0.00
2013-5-5,49.5,27.4,21.9,31.3,0.4,-99.9,87,70,25,30.27,29.98,4,1,12,0.02
2013-5-6,45.1,34.8,28.5,33.5,26.7,-99.9,90,76,47,30.05,29.86,5,1,16,0.06
2013-5-7,48.9,32.1,28.4,32.7,17.5,-99.9,89,76,36,30.03,29.84,1,0,10,0.25
2013-5-8,41.6,32.6,28.7,29.8,26.7,23.3,91,80,49,30.09,29.86,2,0,11,0.26
2013-5-9,42.0,31.6,26.1,30.7,26.4,21.4,90,81,57,30.27,29.96,4,1,16,0.32
2013-5-10,46.4,33.8,20.5,30.8,22.8,15.6,83,66,42,30.35,30.15,5,1,13,0.00
2013-5-11,53.1,39.9,27.2,28.9,22.0,14.6,84,54,22,30.43,30.16,4,1,13,0.00
2013-5-12,61.3,41.8,30.4,31.2,19.9,-99.9,86,53,20,30.28,30.01,4,1,17,0.01
2013-5-13,62.8,46.3,30.2,33.2,27.1,22.0,78,52,23,30.24,29.97,3,1,12,0.00
2013-5-14,66.4,45.7,31.8,37.9,28.8,-99.9,82,58,21,30.07,29.76,6,1,22,0.00
2013-5-15,61.6,44.4,32.3,42.7,32.2,24.4,91,66,24,29.97,29.74,5,1,15,0.11
2013-5-16,62.8,46.1,30.9,46.5,26.7,-99.9,92,56,20,29.97,29.64,3,0,13,0.00
2013-5-17,67.0,45.7,30.4,27.1,13.3,-99.9,75,39,11,29.85,29.65,3,1,18,0.00
2013-5-18,55.9,40.9,30.2,33.0,23.0,16.0,87,54,23,29.88,29.66,3,1,13,0.03
2013-5-19,47.2,35.7,28.7,30.9,25.4,18.6,87,68,34,29.92,29.67,2,1,13,0.04
2013-5-20,49.0,32.9,26.4,32.7,9.7,-99.9,80,61,39,29.99,29.81,2,0,12,0.00
2013-5-21,54.1,35.0,26.9,25.8,10.2,-99.9,78,51,23,30.03,29.79,3,1,16,0.00
2013-5-22,63.8,43.8,28.8,27.7,16.1,-99.9,78,45,18,29.88,29.65,2,0,11,0.00
2013-5-23,65.0,46.9,29.1,41.9,24.5,11.5,83,50,13,29.93,29.66,4,1,18,0.00
2013-5-24,67.4,46.5,27.8,34.3,14.3,-99.9,83,39,10,29.94,29.68,4,1,18,0.00
2013-5-25,69.1,49.9,29.1,25.0,15.3,3.0,69,34,8,29.94,29.64,2,1,14,0.00
2013-5-26,69.0,51.0,31.1,27.6,16.6,5.9,65,32,9,29.88,29.57,3,1,17,0.00
2013-5-27,63.2,48.1,30.8,24.5,16.0,9.0,61,32,12,29.77,29.50,3,1,17,0.00
2013-5-28,61.3,44.4,29.7,23.2,11.9,-99.9,65,35,13,29.70,29.35,3,1,17,0.00
2013-5-29,48.1,38.4,31.2,32.9,25.3,19.5,86,60,35,29.69,29.42,4,1,14,0.07
2013-5-30,53.0,41.8,30.6,23.4,12.6,-99.9,71,36,18,29.74,29.61,4,2,20,0.00
2013-5-31,53.8,42.5,29.8,22.2,13.4,5.2,58,33,15,30.00,29.69,4,2,22,0.00
2013-6-1,61.0,40.9,26.5,25.6,7.0,-99.9,66,37,14,30.14,29.88,3,1,16,0.00
2013-6-2,68.9,49.0,26.9,28.9,15.1,-99.9,66,34,12,30.08,29.57,3,1,16,0.00
2013-6-3,67.0,52.0,37.7,31.7,23.4,16.6,68,37,15,29.83,29.51,3,1,16,0.00
2013-6-4,70.2,49.7,33.5,33.8,23.8,-99.9,71,44,16,29.87,29.62,3,1,20,0.00
2013-6-5,68.6,51.9,34.4,34.1,23.9,11.3,76,41,11,29.88,29.64,3,1,16,0.00
2013-6-6,68.4,48.5,30.7,33.0,20.5,-99.9,71,41,16,29.90,29.65,3,1,12,0.00
2013-6-7,65.3,39.4,34.6,49.9,6.0,-99.9,80,45,24,29.94,29.39,3,0,16,0.03
2013-6-8,-200.0,0.0,200.0,-99.9,-99.9,-99.9,0,0,100,29.54,29.32,0,0,0,0.00
2013-6-9,-200.0,0.0,200.0,-99.9,-99.9,-99.9,0,0,100,29.64,29.52,0,0,0,0.00
2013-6-10,-200.0,0.0,200.0,-99.9,-99.9,-99.9,0,0,100,31.29,29.53,0,0,0,0.00
2013-6-11,69.3,14.8,48.0,19.9,-70.5,-99.9,31,6,12,29.94,29.33,3,0,11,0.00
2013-6-12,80.0,52.4,37.5,34.9,1.2,-99.9,56,24,10,30.08,28.58,3,1,11,0.00
2013-6-13,77.1,53.8,39.2,36.1,13.9,-99.9,58,31,13,30.15,29.34,4,1,17,0.00
2013-6-14,75.7,52.9,39.5,53.2,9.6,-99.9,71,30,13,29.80,29.26,3,1,12,0.00
2013-6-15,70.0,51.0,32.8,30.8,15.6,-99.9,53,33,11,29.90,29.63,3,1,19,0.00
2013-6-16,70.3,50.4,37.7,39.9,32.3,27.2,86,54,20,30.00,29.68,3,1,13,0.04
2013-6-17,72.8,52.6,35.4,38.8,30.5,18.2,88,51,14,30.03,29.74,2,1,12,0.01
2013-6-18,71.8,52.4,35.1,39.9,30.2,21.6,84,49,15,29.91,29.54,2,0,12,0.00
2013-6-19,55.8,37.5,30.0,26.8,21.3,18.5,67,53,29,29.82,29.58,1,0,5,0.00
2013-6-20,75.2,55.3,36.4,25.2,13.3,-99.9,53,24,9,29.69,29.43,2,1,11,0.00
2013-6-21,75.3,56.2,35.2,26.2,19.4,13.5,55,28,10,29.75,29.48,2,1,13,0.00
2013-6-22,75.0,55.2,35.1,30.4,18.6,11.0,61,28,11,29.75,29.44,3,1,14,0.00
2013-6-23,73.9,54.1,32.8,28.8,21.9,14.3,59,33,12,29.78,29.44,2,0,12,0.00
2013-6-24,72.8,53.6,31.9,30.5,16.0,-99.9,66,30,10,29.72,29.33,2,1,13,0.00
2013-6-25,74.1,58.1,43.3,31.0,21.2,-99.9,53,26,16,29.77,29.49,2,1,14,0.00
2013-6-26,79.9,58.4,36.2,35.7,22.8,-99.9,70,35,13,29.91,29.51,2,0,12,0.00
2013-6-27,83.2,61.9,42.6,40.5,25.4,-99.9,59,32,13,30.10,29.56,2,0,11,0.00
2013-6-28,78.2,58.4,42.3,51.5,37.3,-99.9,78,52,18,30.02,29.75,3,0,13,0.03
2013-6-29,77.8,52.5,41.5,54.6,35.4,-99.9,82,65,21,30.06,29.61,4,1,20,0.03
2013-6-30,74.2,54.5,39.2,47.8,31.6,-99.9,87,59,21,30.06,29.51,4,1,17,0.00
2013-7-1,71.0,52.8,37.4,44.4,32.2,-99.9,84,55,22,30.26,29.63,6,1,21,0.00
2013-7-2,70.2,53.3,37.9,42.8,29.5,-99.9,84,52,18,30.04,29.70,4,1,14,0.00
2013-7-3,74.0,54.3,36.5,43.2,28.6,-99.9,82,50,14,29.91,29.62,5,1,24,0.00
2013-7-4,73.2,56.6,41.5,45.5,36.1,30.4,79,51,22,29.82,29.56,2,0,13,0.00
2013-7-5,75.0,54.6,44.9,50.2,28.5,-99.9,86,51,25,29.65,29.26,1,0,12,0.04
2013-7-6,77.0,58.0,45.7,48.7,40.3,-99.9,90,59,22,29.80,29.48,3,0,13,0.07
2013-7-7,72.3,56.3,46.2,51.1,39.2,-99.9,92,65,29,29.86,29.45,2,0,11,0.24
2013-7-8,74.4,57.7,43.7,52.6,37.3,-99.9,92,58,17,29.96,29.73,2,0,16,0.04
2013-7-9,77.2,59.1,40.1,43.5,24.8,-99.9,80,42,16,30.10,29.56,2,0,11,0.00
2013-7-10,81.2,57.5,46.8,48.4,27.8,-99.9,77,46,22,29.98,29.45,2,0,10,0.00
2013-7-11,79.1,61.5,43.1,49.8,37.2,-99.9,82,49,23,29.85,29.34,4,0,11,0.00
2013-7-12,77.2,57.3,46.1,52.7,31.0,-99.9,76,53,28,29.92,29.35,1,0,10,0.02
2013-7-13,74.1,60.1,46.1,47.8,38.3,-99.9,81,53,30,29.85,29.48,2,0,11,0.00
2013-7-14,77.9,56.4,44.3,50.7,43.7,38.2,92,68,25,29.95,29.61,2,0,11,0.31
2013-7-15,63.1,51.4,42.2,51.9,43.5,-99.9,94,83,59,29.98,29.75,3,1,12,0.02
2013-7-16,67.2,52.3,37.6,47.3,39.5,-99.9,92,67,35,29.99,29.78,4,1,16,0.00
2013-7-17,72.9,56.3,38.6,48.9,40.7,35.2,90,60,28,30.01,29.78,3,1,12,0.00
2013-7-18,77.7,53.2,43.1,52.6,38.0,-99.9,92,69,28,30.09,29.67,3,0,12,0.96
2013-7-19,66.2,51.8,43.1,52.0,40.5,-99.9,93,81,52,30.03,29.64,2,0,8,0.09
2013-7-20,73.8,57.4,40.9,53.1,35.2,-99.9,92,60,23,29.94,29.36,2,0,10,0.00
2013-7-21,77.7,57.9,42.6,47.1,30.0,-99.9,88,48,16,29.85,29.34,2,0,10,0.00
2013-7-22,77.1,59.5,42.2,42.9,33.8,-99.9,77,47,19,29.88,29.45,2,0,12,0.00
2013-7-23,80.6,60.1,40.8,48.4,33.5,19.7,76,44,11,30.02,29.63,2,0,10,0.00
2013-7-24,67.5,51.5,44.0,47.8,31.0,-99.9,79,61,36,30.06,29.69,4,0,11,0.02
2013-7-25,73.0,54.5,43.9,49.7,34.9,-99.9,92,65,36,30.03,29.55,4,1,14,0.16
2013-7-26,71.5,55.6,39.9,51.5,41.6,34.7,92,64,27,30.08,29.78,4,1,12,0.00
2013-7-27,72.8,53.9,41.3,49.8,43.4,36.3,92,72,30,29.93,29.61,2,0,10,0.32
2013-7-28,61.5,51.2,44.4,50.4,37.0,-99.9,93,80,58,29.82,29.59,1,0,10,0.27
2013-7-29,65.6,51.6,41.3,49.7,40.8,-99.9,93,73,42,29.98,29.70,2,0,10,0.28
2013-7-30,67.6,52.7,38.9,46.7,36.9,-99.9,92,64,33,30.21,29.92,2,0,11,0.00
2013-7-31,72.1,54.8,37.2,46.1,31.8,-99.9,86,54,21,30.25,29.60,2,0,8,0.00
2013-8-1,64.1,49.2,40.0,47.7,26.4,-99.9,84,61,40,30.14,29.70,1,0,7,0.02
2013-8-2,75.0,59.0,46.7,44.9,37.3,-99.9,84,52,20,29.88,29.48,2,0,12,0.00
2013-8-3,75.5,54.1,42.5,49.9,42.3,33.4,89,68,23,30.02,29.66,2,0,10,0.07
2013-8-4,75.2,55.8,41.3,49.3,38.1,-99.9,91,60,21,30.05,29.73,1,0,10,0.00
2013-8-5,74.7,54.5,42.6,49.8,42.2,35.2,88,67,25,29.92,29.68,3,0,12,0.02
2013-8-6,72.4,53.1,42.4,47.2,41.8,33.8,91,70,27,29.96,29.66,2,0,8,0.09
2013-8-7,50.8,46.1,40.2,47.1,43.1,37.5,93,89,78,29.99,29.77,1,0,6,0.39
2013-8-8,65.1,49.1,39.2,43.6,38.2,31.2,92,70,28,30.02,29.77,5,1,17,0.00
2013-8-9,67.0,45.5,36.5,50.0,32.5,-99.9,92,73,28,30.24,29.85,1,0,8,0.46
2013-8-10,70.2,51.4,36.5,48.3,36.7,28.0,92,63,21,30.25,29.89,2,0,14,0.01
2013-8-11,65.8,49.4,37.2,46.5,38.0,32.0,90,69,32,30.13,29.88,2,0,10,0.20
2013-8-12,67.4,44.6,37.3,47.8,25.2,-99.9,93,70,32,30.13,29.77,2,0,8,0.16
2013-8-13,66.2,49.5,35.6,48.1,31.2,-99.9,92,61,27,30.18,29.85,3,0,11,0.00
2013-8-14,68.1,46.0,36.2,43.8,16.7,-99.9,84,51,22,30.13,29.78,2,0,10,0.00
2013-8-15,71.8,41.7,34.9,42.0,-5.1,-99.9,81,43,18,30.25,29.67,2,0,11,0.00
2013-8-16,76.3,53.2,37.0,47.3,27.1,-99.9,80,48,16,30.30,29.63,3,0,12,0.00
2013-8-17,74.3,46.7,38.5,50.9,0.7,-99.9,76,38,16,30.08,29.47,2,0,10,0.00
2013-8-18,74.4,46.3,40.1,49.3,24.2,-99.9,91,66,26,30.13,29.55,3,0,6,0.30
2013-8-19,75.4,45.8,40.1,50.0,6.2,-99.9,92,52,26,30.09,29.55,3,0,8,0.01
2013-8-20,72.1,43.2,41.8,52.2,7.0,-99.9,88,51,31,30.05,29.47,2,0,6,0.01
2013-8-21,74.9,45.5,41.6,54.9,-0.8,-99.9,84,45,26,30.11,29.50,5,0,5,0.00
2013-8-22,72.4,45.0,44.3,55.8,0.6,-99.9,92,48,30,30.07,29.51,1,0,6,0.14
2013-8-23,72.4,40.3,42.3,51.0,-6.4,-99.9,92,45,28,29.95,29.39,2,0,8,0.02
2013-8-24,67.2,45.5,41.5,48.9,16.2,-99.9,87,58,35,30.04,29.57,1,0,8,0.01
2013-8-25,63.6,40.6,44.0,53.3,-2.2,-99.9,92,57,52,30.08,29.68,2,0,6,0.14
2013-8-26,71.2,39.3,45.3,51.6,-13.3,-99.9,92,45,43,30.08,29.54,3,0,8,0.02
2013-8-27,69.7,46.2,42.2,52.7,9.8,-99.9,92,54,35,30.15,29.52,1,0,6,0.01
2013-8-28,71.6,46.1,41.4,60.1,3.4,-99.9,90,51,33,30.05,29.47,2,0,7,0.58
2013-8-29,74.5,47.9,39.0,54.9,14.4,-99.9,92,57,27,30.24,29.58,2,0,7,0.07
2013-8-30,74.0,41.9,46.4,51.3,-7.3,-99.9,91,46,32,30.09,29.53,2,0,6,0.00
2013-8-31,69.6,40.9,44.1,55.4,-6.0,-99.9,92,53,37,30.06,29.59,3,0,6,0.18
2013-9-1,70.8,38.6,43.1,52.9,-17.7,-99.9,92,44,40,30.03,29.44,2,0,7,0.00
2013-9-2,72.3,44.1,44.5,59.1,7.7,-99.9,92,57,34,30.06,29.50,1,0,6,0.26
2013-9-3,76.3,42.9,42.8,58.1,-11.1,-99.9,93,44,26,30.05,29.45,1,0,6,0.01
2013-9-4,74.6,44.1,45.5,52.1,6.5,-99.9,88,55,32,30.10,29.50,2,0,8,0.00
2013-9-5,76.4,47.2,42.6,50.5,-0.9,-99.9,91,44,24,30.19,29.54,3,0,8,0.00
2013-9-6,74.4,45.2,41.1,53.7,12.5,-99.9,91,59,23,30.19,29.50,2,0,10,0.25
2013-9-7,70.8,43.1,38.6,48.9,12.0,-99.9,92,57,30,30.07,29.49,2,0,7,0.00
2013-9-8,72.3,44.6,40.1,53.9,4.7,-99.9,89,49,28,30.06,29.33,2,0,8,0.00
2013-9-9,67.0,43.8,39.2,49.4,12.4,-99.9,91,56,36,29.93,29.27,5,0,13,0.05
2013-9-10,58.0,41.8,46.5,48.6,6.4,-99.9,93,66,60,29.89,29.42,2,0,11,0.20
2013-9-11,57.6,40.8,46.4,50.8,-2.5,-99.9,94,60,73,29.92,29.62,3,0,8,0.03
2013-9-12,59.2,42.0,45.2,51.3,14.1,-99.9,94,70,71,29.97,29.60,3,0,11,0.20
2013-9-13,59.2,37.6,41.3,47.7,1.0,-99.9,93,58,43,29.89,29.48,1,0,6,0.37
2013-9-14,64.8,37.9,39.6,49.7,-2.8,-99.9,93,53,43,29.86,29.39,2,0,10,0.05
2013-9-15,53.3,41.6,37.5,44.7,31.5,-99.9,93,82,68,30.06,29.69,2,0,8,0.15
2013-9-16,61.2,42.6,38.3,56.3,18.8,-99.9,93,70,47,30.12,29.64,1,0,7,0.05
2013-9-17,65.1,41.0,35.5,48.7,13.2,-99.9,92,58,33,30.14,29.47,2,0,7,0.00
2013-9-18,62.7,43.1,39.6,46.4,22.5,-99.9,93,72,42,29.88,29.57,3,0,7,0.36
2013-9-19,59.5,39.4,31.6,47.4,12.4,-99.9,92,60,35,30.00,29.66,2,0,7,0.00
2013-9-20,66.6,34.7,27.8,40.6,-0.8,-99.9,88,49,18,30.32,29.82,2,0,10,0.00
2013-9-21,65.0,43.0,33.1,40.0,17.6,-99.9,85,54,27,30.15,29.59,2,0,11,0.00
2013-9-22,53.9,37.9,33.9,43.8,28.4,-99.9,92,83,59,29.72,29.40,3,0,8,0.84
2013-9-23,46.6,35.5,29.0,34.4,25.7,-99.9,92,75,40,30.19,29.40,4,1,24,0.15
2013-9-24,64.1,38.1,26.4,29.0,11.6,-99.9,84,52,15,30.33,29.75,2,1,7,0.00
2013-9-25,65.1,39.7,29.0,44.6,5.2,-99.9,82,43,18,29.91,29.11,5,1,16,0.00
2013-9-26,65.1,42.3,32.0,28.1,5.2,-99.9,72,38,13,29.78,29.22,5,1,16,0.00
2013-9-27,43.4,35.9,26.3,35.3,26.0,-99.9,85,71,47,30.03,29.30,4,1,10,0.07
2013-9-28,56.5,32.9,21.4,28.1,6.0,-99.9,70,49,19,30.32,29.99,3,1,10,0.02
2013-9-29,59.7,36.0,28.4,32.6,3.1,-99.9,70,40,20,30.25,29.79,3,1,11,0.00
2013-9-30,68.3,47.5,37.2,35.2,6.8,-99.9,55,32,21,29.99,29.52,2,1,10,0.00
2013-10-1,69.3,43.0,29.6,33.0,14.5,-99.9,76,47,12,30.12,29.67,3,0,8,0.00
2013-10-2,63.7,41.7,28.9,27.2,14.2,-99.9,73,47,14,30.06,29.62,2,0,11,0.00
2013-10-3,61.7,43.6,28.1,26.1,10.1,-99.9,76,41,18,29.98,29.25,4,1,14,0.00
2013-10-4,42.4,27.7,20.2,29.1,14.8,6.4,83,60,28,30.23,29.27,3,1,13,0.05
2013-10-5,48.6,30.3,19.4,13.6,7.9,-2.4,60,43,12,30.40,30.05,4,0,13,0.01
2013-10-6,60.7,36.1,21.3,25.5,10.5,-99.9,74,43,19,30.44,29.96,2,0,11,0.00
2013-10-7,67.8,39.4,27.6,38.9,8.6,-99.9,75,44,9,30.38,29.70,2,0,8,0.00
2013-10-8,62.4,37.2,28.5,27.5,5.9,-99.9,72,45,16,30.10,29.51,3,0,10,0.00
2013-10-9,58.5,37.2,26.1,46.1,15.5,-99.9,83,54,22,29.97,29.60,5,1,8,0.00
2013-10-10,42.7,34.1,26.1,30.1,22.2,-99.9,87,68,42,29.67,29.48,4,1,12,0.00
2013-10-11,41.5,31.1,24.3,27.4,22.7,18.1,84,71,52,30.12,29.66,3,1,12,0.04
2013-10-12,49.3,30.8,17.2,30.5,17.4,-99.9,84,65,26,30.33,30.00,3,0,12,0.00
2013-10-13,54.1,33.0,24.5,40.4,2.7,-99.9,84,58,32,30.18,29.70,4,0,14,0.00
2013-10-14,40.2,31.2,25.7,33.0,22.2,-99.9,85,73,54,30.17,29.64,3,1,11,0.02
2013-10-15,36.6,26.5,19.2,29.2,14.7,-99.9,88,71,39,30.27,30.03,2,0,7,0.03
2013-10-16,39.4,24.9,16.8,24.5,10.0,-99.9,87,67,34,30.29,30.01,2,0,11,0.00
2013-10-17,44.7,27.4,15.7,26.9,6.6,-99.9,69,50,24,30.32,29.89,4,1,13,0.00
2013-10-18,36.9,26.8,17.5,27.3,10.3,-99.9,81,55,25,30.36,29.83,4,1,12,0.01
2013-10-19,47.9,26.3,17.8,23.9,-2.7,-99.9,71,48,24,30.45,29.98,3,1,13,0.00
2013-10-20,49.4,31.0,24.3,33.6,5.9,-99.9,69,51,24,30.14,29.72,4,1,14,0.00
2013-10-21,46.9,29.7,18.1,36.4,11.1,-99.9,81,56,20,30.42,29.95,3,0,14,0.00
2013-10-22,57.8,24.4,21.0,29.8,-13.8,-99.9,74,48,30,30.46,29.97,2,0,7,0.00
2013-10-23,59.7,32.3,23.3,28.8,4.3,-99.9,69,47,13,30.42,29.98,2,0,8,0.00
2013-10-24,58.1,35.5,26.1,31.0,11.0,-99.9,70,48,18,30.38,30.00,2,0,7,0.00
2013-10-25,51.8,33.1,26.0,32.8,19.0,-99.9,91,68,28,30.37,29.96,2,0,6,0.01
2013-10-26,53.3,32.0,25.1,41.5,13.2,-99.9,90,66,27,30.45,30.06,1,0,6,0.00
2013-10-27,49.6,33.3,25.5,33.1,16.5,-99.9,75,58,28,30.29,29.84,3,1,10,0.00
2013-10-28,50.3,32.3,26.1,33.7,9.8,-99.9,81,55,22,30.02,29.60,4,1,12,0.00
2013-10-29,41.5,30.9,22.9,26.4,17.9,-99.9,88,63,32,30.00,29.67,4,1,13,0.00
2013-10-30,32.4,22.7,15.9,22.2,9.3,-99.9,81,67,50,30.12,29.79,2,0,8,0.10
2013-10-31,34.0,23.9,21.0,17.6,4.7,-99.9,66,58,44,30.20,29.95,3,1,14,0.03
2013-11-1,38.9,28.3,20.2,19.3,11.2,-99.9,77,52,28,30.39,30.06,5,1,26,0.05
2013-11-2,55.4,25.0,16.8,23.7,-21.6,-99.9,60,34,8,30.52,29.46,5,1,11,0.00
2013-11-3,47.4,31.4,25.9,19.2,-1.8,-99.9,71,40,27,30.08,29.56,10,2,16,0.00
2013-11-4,39.0,28.4,20.6,22.2,9.4,-99.9,85,53,28,29.98,29.67,2,1,10,0.00
2013-11-5,29.4,17.7,1.7,21.3,3.8,-99.9,84,65,35,30.57,29.75,3,1,8,0.07
2013-11-6,35.6,19.2,1.7,25.4,5.0,-99.9,76,60,36,30.77,30.50,3,1,10,0.05
2013-11-7,48.8,28.9,13.8,38.0,5.5,-99.9,79,50,24,30.77,30.02,3,1,13,0.00
2013-11-8,50.5,31.5,26.5,18.0,-0.1,-99.9,56,37,20,30.17,29.77,4,1,14,0.00
2013-11-9,53.0,32.1,25.1,28.0,8.7,-99.9,62,46,19,30.42,29.99,3,1,8,0.00
2013-11-10,54.1,30.4,20.6,35.6,-0.6,-99.9,62,44,18,30.52,30.02,3,1,16,0.00
2013-11-11,51.8,28.0,19.7,26.6,3.5,-99.9,69,48,18,30.66,30.16,2,0,11,0.00
2013-11-12,48.3,27.2,20.0,35.7,5.7,-99.9,68,52,18,30.82,30.38,6,1,11,0.00
2013-11-13,50.7,30.3,17.6,32.9,4.0,-99.9,64,44,17,30.66,29.93,4,0,7,0.00
2013-11-14,48.5,28.6,20.5,35.4,5.1,-99.9,73,51,14,30.24,29.73,3,0,7,0.00
2013-11-15,39.4,28.6,18.0,24.9,14.2,-99.9,86,60,30,29.86,29.45,2,1,8,0.00
2013-11-16,28.8,24.5,21.9,22.2,18.5,14.7,89,78,62,29.67,29.50,5,3,17,0.01
2013-11-17,35.0,22.5,12.8,21.2,1.4,-99.9,87,65,54,30.38,29.67,4,2,13,0.28
2013-11-18,52.4,21.8,9.0,22.8,-2.4,-99.9,79,59,18,30.65,30.10,3,0,8,0.05
2013-11-19,45.2,23.7,10.8,23.9,0.3,-99.9,79,56,32,30.46,29.72,4,1,12,0.00
2013-11-20,44.3,28.3,19.3,34.9,6.1,-99.9,87,61,34,30.03,29.61,3,0,8,0.01
2013-11-21,37.5,24.7,15.5,30.6,13.1,-99.9,88,82,59,30.33,29.77,3,0,7,0.15
2013-11-22,22.5,16.9,11.9,16.6,11.3,-99.9,85,82,74,30.67,30.33,4,1,11,0.00
2013-11-23,21.3,17.2,14.9,14.9,11.7,-99.9,85,82,76,30.70,30.42,3,0,7,0.00
2013-11-24,33.0,22.2,11.5,25.2,16.5,-99.9,87,82,67,30.46,29.89,2,0,5,0.01
2013-11-25,29.5,18.9,4.8,20.7,11.2,-99.9,83,75,61,30.62,29.87,5,1,11,0.00
2013-11-26,36.9,13.8,1.1,24.5,3.7,-99.9,80,71,46,30.88,30.46,4,0,8,0.30
2013-11-27,48.3,16.2,5.6,27.5,-3.4,-99.9,82,64,27,30.82,30.16,2,0,6,0.14
2013-11-28,42.2,15.6,7.3,30.3,-5.6,-99.9,81,62,31,30.63,30.15,2,0,6,0.01
2013-11-29,43.2,20.9,9.6,30.2,3.3,-99.9,77,58,25,30.68,30.22,2,0,11,0.00
2013-11-30,41.9,18.2,7.0,20.6,1.0,-99.9,78,58,25,30.74,30.27,2,0,7,0.00
2013-12-1,39.1,23.6,4.2,18.1,4.4,-99.9,77,51,28,30.66,30.00,6,3,16,0.00
2013-12-2,41.8,30.6,26.6,23.0,13.4,-99.9,68,53,35,30.06,29.59,5,2,13,0.00
2013-12-3,30.3,27.1,25.3,23.2,12.9,-99.9,87,66,44,29.64,29.37,4,1,10,0.00
2013-12-4,25.9,15.4,-5.3,22.6,10.4,-12.6,88,80,69,30.18,29.29,3,2,12,0.00
2013-12-5,19.6,-1.0,-16.7,9.4,-15.3,-99.9,71,64,46,30.54,30.01,2,1,11,0.25
2013-12-6,12.9,3.6,-1.6,-1.1,-9.7,-99.9,71,59,43,30.49,30.11,4,2,12,0.00
2013-12-7,14.7,9.4,0.3,5.5,0.2,-99.9,78,69,48,30.37,29.78,2,1,8,0.00
2013-12-8,12.2,2.9,-16.1,4.6,-8.1,-99.9,78,65,49,30.45,29.73,3,1,10,0.00
2013-12-9,9.2,-3.3,-14.0,-9.8,-20.8,-99.9,69,54,33,30.91,30.18,4,1,13,0.00
2013-12-10,29.2,13.5,-9.0,13.8,-3.9,-99.9,72,57,39,30.78,30.30,5,2,11,0.00
2013-12-11,33.2,15.0,5.0,6.9,-3.5,-99.9,72,56,28,30.83,30.32,3,1,10,0.00
2013-12-12,44.6,16.0,3.7,22.1,-4.5,-99.9,74,55,21,30.93,30.11,3,1,7,0.04
2013-12-13,37.8,15.0,3.9,12.3,-9.9,-99.9,79,55,24,30.56,29.98,2,0,11,0.00
2013-12-14,32.6,9.9,-4.9,13.0,-7.7,-99.9,76,60,27,31.01,30.24,4,0,9,0.00
2013-12-15,41.8,21.3,14.5,27.3,-7.9,-99.9,72,49,26,30.78,30.17,3,1,13,0.00
2013-12-16,43.1,26.2,12.0,16.0,-5.7,-99.9,66,40,18,30.83,30.05,3,1,13,0.00
2013-12-17,48.0,23.0,11.3,31.4,1.9,-99.9,69,53,22,30.78,30.23,3,0,8,0.00
2013-12-18,48.6,27.8,13.1,15.3,-2.2,-99.9,71,41,16,30.35,29.64,3,1,12,0.00
2013-12-19,41.0,28.6,21.1,19.9,9.8,-99.9,72,56,27,29.81,29.45,3,1,13,0.00
2013-12-20,25.8,20.6,7.7,18.1,7.8,-99.9,77,71,64,29.84,29.58,2,1,7,0.00
2013-12-21,29.0,11.7,-2.2,11.7,-0.6,-99.9,78,64,43,30.10,29.65,2,0,12,0.01
2013-12-22,23.0,10.2,-5.0,6.2,-2.1,-12.3,75,58,39,30.62,30.13,4,1,10,0.01
2013-12-23,26.3,17.9,13.3,12.9,-0.7,-99.9,69,55,41,30.60,30.31,7,2,18,0.00
2013-12-24,31.5,19.0,-1.1,19.9,1.3,-99.9,72,61,46,30.60,30.06,5,1,16,0.00
2013-12-25,36.2,11.0,-2.9,18.7,-6.8,-99.9,72,55,18,31.03,30.55,2,0,11,0.08
2013-12-26,41.4,15.1,2.5,23.5,-1.6,-99.9,73,55,25,30.95,30.40,1,0,8,0.00
2013-12-27,42.6,16.4,6.5,17.0,-6.5,-99.9,78,61,28,30.83,30.20,3,0,8,0.00
2013-12-28,42.8,21.7,10.6,22.4,3.9,-99.9,85,63,31,30.43,29.86,4,0,11,0.00
2013-12-29,35.1,18.7,9.4,15.2,5.5,-4.1,84,60,23,30.47,29.90,4,1,17,0.06
2013-12-30,34.9,22.1,10.9,10.5,2.9,-99.9,67,47,24,30.51,30.03,8,2,27,0.00
2013-12-31,34.5,25.9,16.6,16.3,10.6,3.9,68,52,41,30.42,30.03,4,2,14,0.00
2014-1-1,30.6,21.4,12.3,17.7,6.3,-99.9,82,55,31,30.55,29.96,6,2,19,0.07
2014-1-2,41.7,22.1,7.0,20.5,-0.4,-99.9,57,44,21,30.75,30.02,4,1,11,0.00